TimeEST,TemperatureF,Dew PointF,Humidity,Sea Level PressureIn,VisibilityMPH,Wind Direction,Wind SpeedMPH,Gust SpeedMPH,PrecipitationIn,Events,Conditions,WindDirDegrees,DateUTC
12:15 AM,33.8,26.6,75,30.21,10.0,South,15.0,24.2,N/A,,Overcast,180,2012-12-06 05:15:00
12:35 AM,35.6,28.4,75,30.20,10.0,South,16.1,23.0,N/A,,Overcast,170,2012-12-06 05:35:00
12:54 AM,35.6,28.4,75,30.19,10.0,South,16.1,23.0,N/A,,Overcast,190,2012-12-06 05:54:00
1:15 AM,35.6,28.4,75,30.18,10.0,South,15.0,19.6,N/A,,Overcast,180,2012-12-06 06:15:00
1:35 AM,35.6,28.4,75,30.18,10.0,South,16.1,23.0,N/A,,Overcast,190,2012-12-06 06:35:00
1:55 AM,37.4,30.2,75,30.17,10.0,SSW,16.1,23.0,N/A,,Overcast,200,2012-12-06 06:55:00
2:15 AM,37.4,30.2,75,30.16,10.0,South,15.0,20.7,N/A,,Overcast,190,2012-12-06 07:15:00
2:35 AM,37.4,30.2,75,30.16,10.0,South,18.4,25.3,N/A,,Overcast,190,2012-12-06 07:35:00
2:55 AM,37.4,32.0,81,30.15,10.0,South,15.0,24.2,N/A,,Overcast,190,2012-12-06 07:55:00
3:14 AM,37.4,32.0,81,30.15,10.0,South,15.0,20.7,N/A,,Overcast,190,2012-12-06 08:14:00
3:35 AM,37.4,32.0,81,30.14,10.0,South,16.1,21.9,N/A,,Overcast,190,2012-12-06 08:35:00
3:55 AM,37.4,33.8,87,30.13,10.0,SSW,17.3,24.2,N/A,,Overcast,200,2012-12-06 08:55:00
4:14 AM,37.4,32.0,81,30.12,10.0,South,17.3,24.2,N/A,,Overcast,190,2012-12-06 09:14:00
4:35 AM,37.4,32.0,81,30.11,10.0,South,16.1,23.0,N/A,,Overcast,190,2012-12-06 09:35:00
4:55 AM,37.4,33.8,87,30.10,10.0,South,13.8,21.9,N/A,,Overcast,190,2012-12-06 09:55:00
5:14 AM,37.4,33.8,87,30.10,10.0,South,15.0,21.9,N/A,,Overcast,180,2012-12-06 10:14:00
5:35 AM,37.4,33.8,87,30.09,10.0,South,13.8,21.9,N/A,,Overcast,180,2012-12-06 10:35:00
5:54 AM,37.4,33.8,87,30.09,10.0,South,18.4,24.2,N/A,,Overcast,180,2012-12-06 10:54:00
6:15 AM,37.4,33.8,87,30.08,10.0,South,15.0,24.2,N/A,,Overcast,180,2012-12-06 11:15:00
6:35 AM,37.4,33.8,87,30.06,10.0,South,13.8,23.0,N/A,,Overcast,170,2012-12-06 11:35:00
6:54 AM,37.4,33.8,87,30.06,10.0,South,18.4,23.0,N/A,,Overcast,180,2012-12-06 11:54:00
7:15 AM,37.4,33.8,87,30.04,10.0,South,16.1,27.6,N/A,,Overcast,180,2012-12-06 12:15:00
7:35 AM,37.4,33.8,87,30.04,10.0,South,15.0,26.5,N/A,,Overcast,180,2012-12-06 12:35:00
7:55 AM,37.4,33.8,87,30.03,10.0,South,19.6,26.5,N/A,,Overcast,180,2012-12-06 12:55:00
8:15 AM,37.4,33.8,87,30.02,10.0,South,17.3,25.3,N/A,,Overcast,180,2012-12-06 13:15:00
8:34 AM,37.4,33.8,87,30.02,10.0,South,20.7,27.6,N/A,,Overcast,180,2012-12-06 13:34:00
8:55 AM,37.4,33.8,87,30.01,10.0,South,18.4,27.6,N/A,,Drizzle,180,2012-12-06 13:55:00
9:15 AM,37.4,33.8,87,29.99,10.0,South,17.3,26.5,N/A,Rain,Rain,180,2012-12-06 14:15:00
9:34 AM,37.4,33.8,87,29.98,10.0,South,17.3,24.2,N/A,Rain,Rain,180,2012-12-06 14:34:00
9:55 AM,37.4,35.6,93,29.98,10.0,South,23.0,29.9,N/A,,Light Drizzle,190,2012-12-06 14:55:00
10:14 AM,37.4,35.6,93,29.97,10.0,South,21.9,27.6,N/A,Rain,Light Rain,180,2012-12-06 15:14:00
10:35 AM,37.4,35.6,93,29.97,10.0,South,20.7,29.9,N/A,Rain,Light Rain,190,2012-12-06 15:35:00
10:55 AM,37.4,35.6,93,29.94,7.0,South,21.9,29.9,N/A,,Drizzle,180,2012-12-06 15:55:00
11:14 AM,37.4,35.6,93,29.93,10.0,South,20.7,31.1,N/A,Rain,Rain,180,2012-12-06 16:14:00
11:35 AM,37.4,33.8,87,29.92,10.0,South,19.6,32.2,N/A,,Light Drizzle,180,2012-12-06 16:35:00
11:55 AM,37.4,33.8,87,29.91,3.0,South,21.9,34.5,N/A,Rain,Light Rain,180,2012-12-06 16:55:00
12:14 PM,37.4,35.6,93,29.88,10.0,South,19.6,27.6,N/A,Rain,Light Rain,180,2012-12-06 17:14:00
12:35 PM,37.4,35.6,93,29.88,10.0,South,17.3,29.9,N/A,Rain,Light Rain,180,2012-12-06 17:35:00
12:54 PM,39.2,35.6,87,29.88,10.0,South,16.1,28.8,N/A,,Overcast,190,2012-12-06 17:54:00
1:15 PM,39.2,35.6,87,29.87,10.0,SSW,20.7,27.6,N/A,,Overcast,200,2012-12-06 18:15:00
1:35 PM,39.2,35.6,87,29.85,10.0,South,19.6,25.3,N/A,,Overcast,190,2012-12-06 18:35:00
1:54 PM,39.2,35.6,87,29.84,10.0,SSW,21.9,28.8,N/A,,Drizzle,200,2012-12-06 18:54:00
2:15 PM,39.2,35.6,87,29.83,10.0,South,17.3,27.6,N/A,,Light Drizzle,190,2012-12-06 19:15:00
2:35 PM,39.2,37.4,93,29.82,10.0,South,18.4,24.2,N/A,,Light Drizzle,190,2012-12-06 19:35:00
2:55 PM,41.0,37.4,87,29.82,10.0,South,19.6,24.2,N/A,,Overcast,190,2012-12-06 19:55:00
3:15 PM,41.0,37.4,87,29.82,10.0,SSW,17.3,25.3,N/A,,Overcast,200,2012-12-06 20:15:00
3:35 PM,41.0,37.4,87,29.82,10.0,SSW,13.8,21.9,N/A,,Overcast,200,2012-12-06 20:35:00
3:55 PM,41.0,37.4,87,29.82,10.0,SSW,13.8,19.6,N/A,,Overcast,210,2012-12-06 20:55:00
4:14 PM,41.0,37.4,87,29.81,10.0,SSW,18.4,21.9,N/A,,Overcast,210,2012-12-06 21:14:00
4:35 PM,41.0,37.4,87,29.81,10.0,SSW,15.0,21.9,N/A,,Overcast,210,2012-12-06 21:35:00
4:55 PM,41.0,37.4,87,29.81,10.0,SSW,13.8,20.7,N/A,,Overcast,210,2012-12-06 21:55:00
5:14 PM,41.0,37.4,87,29.80,10.0,SSW,11.5,21.9,N/A,,Overcast,210,2012-12-06 22:14:00
5:35 PM,41.0,37.4,87,29.79,10.0,SSW,16.1,21.9,N/A,,Overcast,210,2012-12-06 22:35:00
5:55 PM,41.0,37.4,87,29.79,10.0,SSW,13.8,19.6,N/A,,Overcast,210,2012-12-06 22:55:00
6:15 PM,41.0,37.4,87,29.80,10.0,SW,13.8,21.9,N/A,,Overcast,220,2012-12-06 23:15:00
6:35 PM,41.0,37.4,87,29.80,10.0,SW,11.5,-,N/A,,Overcast,220,2012-12-06 23:35:00
6:54 PM,41.0,35.6,81,29.80,10.0,SW,12.7,18.4,N/A,,Overcast,220,2012-12-06 23:54:00
7:15 PM,41.0,35.6,81,29.80,10.0,SW,9.2,19.6,N/A,,Overcast,220,2012-12-07 00:15:00
7:35 PM,39.2,35.6,87,29.80,10.0,SW,5.8,-,N/A,,Overcast,230,2012-12-07 00:35:00
7:54 PM,39.2,35.6,87,29.81,10.0,WSW,6.9,-,N/A,,Overcast,240,2012-12-07 00:54:00
8:15 PM,39.2,35.6,87,29.81,10.0,SW,5.8,-,N/A,,Overcast,230,2012-12-07 01:15:00
8:35 PM,39.2,35.6,87,29.80,10.0,SW,8.1,-,N/A,,Overcast,220,2012-12-07 01:35:00
8:55 PM,39.2,35.6,87,29.80,10.0,SW,5.8,-,N/A,,Overcast,230,2012-12-07 01:55:00
9:15 PM,39.2,35.6,87,29.79,10.0,SSW,8.1,-,N/A,,Overcast,210,2012-12-07 02:15:00
9:34 PM,39.2,35.6,87,29.79,10.0,SW,8.1,-,N/A,,Overcast,220,2012-12-07 02:34:00
9:55 PM,39.2,35.6,87,29.80,10.0,WSW,5.8,-,N/A,,Overcast,240,2012-12-07 02:55:00
10:15 PM,39.2,35.6,87,29.80,10.0,WSW,3.5,-,N/A,,Overcast,240,2012-12-07 03:15:00
10:34 PM,39.2,35.6,87,29.81,10.0,WSW,6.9,-,N/A,,Overcast,240,2012-12-07 03:34:00
10:55 PM,39.2,35.6,87,29.81,10.0,West,5.8,-,N/A,,Overcast,260,2012-12-07 03:55:00
11:15 PM,39.2,35.6,87,29.81,10.0,West,4.6,-,N/A,,Overcast,270,2012-12-07 04:15:00
11:34 PM,39.2,35.6,87,29.82,7.0,West,8.1,-,N/A,,Overcast,270,2012-12-07 04:34:00
11:55 PM,39.2,35.6,87,29.82,10.0,West,5.8,-,N/A,,Overcast,270,2012-12-07 04:55:00